Year,Month,Day,Hour,Minute,Value (Times are PST for temperature in C)
2010,08,16,00,00,18.20
2010,08,16,00,01,18.20
2010,08,16,00,02,18.20
2010,08,16,00,03,18.20
2010,08,16,00,04,18.20
2010,08,16,00,05,18.20
2010,08,16,00,06,18.20
2010,08,16,00,07,18.20
2010,08,16,00,08,18.20
2010,08,16,00,09,18.20
2010,08,16,00,10,18.20
2010,08,16,00,11,18.20
2010,08,16,00,12,18.20
2010,08,16,00,13,18.20
2010,08,16,00,14,18.20
2010,08,16,00,15,18.10
2010,08,16,00,16,18.10
2010,08,16,00,17,18.10
2010,08,16,00,18,18.10
2010,08,16,00,19,18.10
2010,08,16,00,20,18.10
2010,08,16,00,21,18.00
2010,08,16,00,22,17.90
2010,08,16,00,23,17.90
2010,08,16,00,24,17.90
2010,08,16,00,25,17.90
2010,08,16,00,26,17.90
2010,08,16,00,27,17.90
2010,08,16,00,28,17.90
2010,08,16,00,29,17.80
2010,08,16,00,30,17.80
2010,08,16,00,31,17.80
2010,08,16,00,32,17.80
2010,08,16,00,33,17.70
2010,08,16,00,34,17.70
2010,08,16,00,35,17.70
2010,08,16,00,36,17.60
2010,08,16,00,37,17.60
2010,08,16,00,38,17.60
2010,08,16,00,39,17.60
2010,08,16,00,40,17.50
2010,08,16,00,41,17.50
2010,08,16,00,42,17.50
2010,08,16,00,43,17.50
2010,08,16,00,44,17.40
2010,08,16,00,45,17.40
2010,08,16,00,46,17.40
2010,08,16,00,47,17.40
2010,08,16,00,48,17.40
2010,08,16,00,49,17.40
2010,08,16,00,50,17.40
2010,08,16,00,51,17.30
2010,08,16,00,52,17.30
2010,08,16,00,53,17.30
2010,08,16,00,54,17.30
2010,08,16,00,55,17.30
2010,08,16,00,56,17.30
2010,08,16,00,57,17.30
2010,08,16,00,58,17.30
2010,08,16,00,59,17.30
2010,08,16,01,00,17.30
2010,08,16,01,01,17.30
2010,08,16,01,02,17.30
2010,08,16,01,03,17.20
2010,08,16,01,04,17.20
2010,08,16,01,05,17.20
2010,08,16,01,06,17.20
2010,08,16,01,07,17.20
2010,08,16,01,08,17.20
2010,08,16,01,09,17.10
2010,08,16,01,10,17.10
2010,08,16,01,11,17.10
2010,08,16,01,12,17.10
2010,08,16,01,13,17.00
2010,08,16,01,14,17.00
2010,08,16,01,15,17.00
2010,08,16,01,16,17.00
2010,08,16,01,17,17.00
2010,08,16,01,18,17.00
2010,08,16,01,19,17.00
2010,08,16,01,20,17.00
2010,08,16,01,21,17.10
2010,08,16,01,22,17.10
2010,08,16,01,23,17.10
2010,08,16,01,24,17.10
2010,08,16,01,25,17.10
2010,08,16,01,26,17.10
2010,08,16,01,27,17.10
2010,08,16,01,28,17.10
2010,08,16,01,29,17.00
2010,08,16,01,30,17.00
2010,08,16,01,31,17.00
2010,08,16,01,32,17.00
2010,08,16,01,33,16.90
2010,08,16,01,34,16.90
2010,08,16,01,35,16.80
2010,08,16,01,36,16.80
2010,08,16,01,37,16.80
2010,08,16,01,38,16.70
2010,08,16,01,39,16.70
2010,08,16,01,40,16.70
2010,08,16,01,41,16.70
2010,08,16,01,42,16.70
2010,08,16,01,43,16.70
2010,08,16,01,44,16.70
2010,08,16,01,45,16.60
2010,08,16,01,46,16.60
2010,08,16,01,47,16.60
2010,08,16,01,48,16.60
2010,08,16,01,49,16.60
2010,08,16,01,50,16.50
2010,08,16,01,51,16.50
2010,08,16,01,52,16.40
2010,08,16,01,53,16.50
2010,08,16,01,54,16.50
2010,08,16,01,55,16.50
2010,08,16,01,56,16.40
2010,08,16,01,57,16.40
2010,08,16,01,58,16.40
2010,08,16,01,59,16.40
2010,08,16,02,00,16.40
2010,08,16,02,01,16.40
2010,08,16,02,02,16.50
2010,08,16,02,03,16.40
2010,08,16,02,04,16.40
2010,08,16,02,05,16.40
2010,08,16,02,06,16.40
2010,08,16,02,07,16.40
2010,08,16,02,08,16.40
2010,08,16,02,09,16.40
2010,08,16,02,10,16.40
2010,08,16,02,11,16.40
2010,08,16,02,12,16.40
2010,08,16,02,13,16.40
2010,08,16,02,14,16.40
2010,08,16,02,15,16.40
2010,08,16,02,16,16.40
2010,08,16,02,17,16.40
2010,08,16,02,18,16.40
2010,08,16,02,19,16.40
2010,08,16,02,20,16.40
2010,08,16,02,21,16.40
2010,08,16,02,22,16.40
2010,08,16,02,23,16.40
2010,08,16,02,24,16.40
2010,08,16,02,25,16.40
2010,08,16,02,26,16.40
2010,08,16,02,27,16.40
2010,08,16,02,28,16.40
2010,08,16,02,29,16.40
2010,08,16,02,30,16.40
2010,08,16,02,31,16.40
2010,08,16,02,32,16.40
2010,08,16,02,33,16.40
2010,08,16,02,34,16.40
2010,08,16,02,35,16.40
2010,08,16,02,36,16.40
2010,08,16,02,37,16.40
2010,08,16,02,38,16.40
2010,08,16,02,39,16.40
2010,08,16,02,40,16.40
2010,08,16,02,41,16.40
2010,08,16,02,42,16.40
2010,08,16,02,43,16.40
2010,08,16,02,44,16.40
2010,08,16,02,45,16.30
2010,08,16,02,46,16.30
2010,08,16,02,47,16.30
2010,08,16,02,48,16.30
2010,08,16,02,49,16.30
2010,08,16,02,50,16.30
2010,08,16,02,51,16.20
2010,08,16,02,52,16.20
2010,08,16,02,53,16.20
2010,08,16,02,54,16.10
2010,08,16,02,55,16.10
2010,08,16,02,56,16.10
2010,08,16,02,57,16.10
2010,08,16,02,58,16.00
2010,08,16,02,59,15.90
2010,08,16,03,00,15.90
2010,08,16,03,01,15.90
2010,08,16,03,02,15.80
2010,08,16,03,03,15.80
2010,08,16,03,04,15.80
2010,08,16,03,05,15.80
2010,08,16,03,06,15.80
2010,08,16,03,07,15.80
2010,08,16,03,08,15.70
2010,08,16,03,09,15.70
2010,08,16,03,10,15.70
2010,08,16,03,11,15.70
2010,08,16,03,12,15.60
2010,08,16,03,13,15.60
2010,08,16,03,14,15.60
2010,08,16,03,15,15.60
2010,08,16,03,16,15.60
2010,08,16,03,17,15.60
2010,08,16,03,18,15.60
2010,08,16,03,19,15.70
2010,08,16,03,20,15.70
2010,08,16,03,21,15.70
2010,08,16,03,22,15.70
2010,08,16,03,23,15.70
2010,08,16,03,24,15.70
2010,08,16,03,25,15.70
2010,08,16,03,26,15.70
2010,08,16,03,27,15.70
2010,08,16,03,28,15.70
2010,08,16,03,29,15.70
2010,08,16,03,30,15.70
2010,08,16,03,31,15.70
2010,08,16,03,32,15.70
2010,08,16,03,33,15.70
2010,08,16,03,34,15.70
2010,08,16,03,35,15.70
2010,08,16,03,36,15.70
2010,08,16,03,37,15.70
2010,08,16,03,38,15.70
2010,08,16,03,39,15.70
2010,08,16,03,40,15.70
2010,08,16,03,41,15.70
2010,08,16,03,42,15.80
2010,08,16,03,43,15.80
2010,08,16,03,44,15.80
2010,08,16,03,45,15.80
2010,08,16,03,46,15.80
2010,08,16,03,47,15.80
2010,08,16,03,48,15.80
2010,08,16,03,49,15.80
2010,08,16,03,50,15.80
2010,08,16,03,51,15.80
2010,08,16,03,52,15.80
2010,08,16,03,53,15.80
2010,08,16,03,54,15.80
2010,08,16,03,55,15.80
2010,08,16,03,56,15.80
2010,08,16,03,57,15.80
2010,08,16,03,58,15.80
2010,08,16,03,59,15.80
2010,08,16,04,00,15.80
2010,08,16,04,01,15.80
2010,08,16,04,02,15.80
2010,08,16,04,03,15.80
2010,08,16,04,04,15.80
2010,08,16,04,05,15.80
2010,08,16,04,06,15.80
2010,08,16,04,07,15.80
2010,08,16,04,08,15.80
2010,08,16,04,09,15.80
2010,08,16,04,10,15.80
2010,08,16,04,11,15.80
2010,08,16,04,12,15.80
2010,08,16,04,13,15.70
2010,08,16,04,14,15.70
2010,08,16,04,15,15.70
2010,08,16,04,16,15.70
2010,08,16,04,17,15.60
2010,08,16,04,18,15.60
2010,08,16,04,19,15.60
2010,08,16,04,20,15.60
2010,08,16,04,21,15.50
2010,08,16,04,22,15.50
2010,08,16,04,23,15.50
2010,08,16,04,24,15.50
2010,08,16,04,25,15.50
2010,08,16,04,26,15.50
2010,08,16,04,27,15.50
2010,08,16,04,28,15.40
2010,08,16,04,29,15.40
2010,08,16,04,30,15.40
2010,08,16,04,31,15.50
2010,08,16,04,32,15.50
2010,08,16,04,33,15.50
2010,08,16,04,34,15.50
2010,08,16,04,35,15.40
2010,08,16,04,36,15.40
2010,08,16,04,37,15.40
2010,08,16,04,38,15.40
2010,08,16,04,39,15.30
2010,08,16,04,40,15.30
2010,08,16,04,41,15.30
2010,08,16,04,42,15.30
2010,08,16,04,43,15.30
2010,08,16,04,44,15.30
2010,08,16,04,45,15.30
2010,08,16,04,46,15.20
2010,08,16,04,47,15.20
2010,08,16,04,48,15.20
2010,08,16,04,49,15.20
2010,08,16,04,50,15.20
2010,08,16,04,51,15.20
2010,08,16,04,52,15.20
2010,08,16,04,53,15.20
2010,08,16,04,54,15.20
2010,08,16,04,55,15.20
2010,08,16,04,56,15.20
2010,08,16,04,57,15.20
2010,08,16,04,58,15.20
2010,08,16,04,59,15.20
2010,08,16,05,00,15.10
2010,08,16,05,01,15.10
2010,08,16,05,02,15.10
2010,08,16,05,03,15.10
2010,08,16,05,04,15.10
2010,08,16,05,05,15.00
2010,08,16,05,06,15.00
2010,08,16,05,07,15.00
2010,08,16,05,08,15.00
2010,08,16,05,09,15.00
2010,08,16,05,10,15.00
2010,08,16,05,11,14.90
2010,08,16,05,12,15.00
2010,08,16,05,13,15.00
2010,08,16,05,14,15.00
2010,08,16,05,15,15.00
2010,08,16,05,16,15.00
2010,08,16,05,17,15.00
2010,08,16,05,18,15.00
2010,08,16,05,19,15.00
2010,08,16,05,20,15.00
2010,08,16,05,21,15.00
2010,08,16,05,22,15.00
2010,08,16,05,23,15.00
2010,08,16,05,24,15.00
2010,08,16,05,25,15.00
2010,08,16,05,26,15.00
2010,08,16,05,27,14.90
2010,08,16,05,28,14.90
2010,08,16,05,29,14.90
2010,08,16,05,30,14.90
2010,08,16,05,31,14.90
2010,08,16,05,32,14.90
2010,08,16,05,33,14.90
2010,08,16,05,34,14.80
2010,08,16,05,35,14.80
2010,08,16,05,36,14.80
2010,08,16,05,37,14.80
2010,08,16,05,38,14.80
2010,08,16,05,39,14.80
2010,08,16,05,40,14.80
2010,08,16,05,41,14.80
2010,08,16,05,42,14.80
2010,08,16,05,43,14.80
2010,08,16,05,44,14.80
2010,08,16,05,45,14.80
2010,08,16,05,46,14.80
2010,08,16,05,47,14.80
2010,08,16,05,48,14.80
2010,08,16,05,49,14.80
2010,08,16,05,50,14.80
2010,08,16,05,51,14.70
2010,08,16,05,52,14.70
2010,08,16,05,53,14.70
2010,08,16,05,54,14.70
2010,08,16,05,55,14.70
2010,08,16,05,56,14.70
2010,08,16,05,57,14.70
2010,08,16,05,58,14.60
2010,08,16,05,59,14.60
2010,08,16,06,00,14.60
2010,08,16,06,01,14.60
2010,08,16,06,02,14.60
2010,08,16,06,03,14.60
2010,08,16,06,04,14.60
2010,08,16,06,05,14.50
2010,08,16,06,06,14.50
2010,08,16,06,07,14.50
2010,08,16,06,08,14.50
2010,08,16,06,09,14.50
2010,08,16,06,10,14.50
2010,08,16,06,11,14.40
2010,08,16,06,12,14.40
2010,08,16,06,13,14.40
2010,08,16,06,14,14.40
2010,08,16,06,15,14.40
2010,08,16,06,16,14.40
2010,08,16,06,17,14.30
2010,08,16,06,18,14.30
2010,08,16,06,19,14.30
2010,08,16,06,20,14.30
2010,08,16,06,21,14.30
2010,08,16,06,22,14.30
2010,08,16,06,23,14.20
2010,08,16,06,24,14.20
2010,08,16,06,25,14.20
2010,08,16,06,26,14.20
2010,08,16,06,27,14.20
2010,08,16,06,28,14.20
2010,08,16,06,29,14.20
2010,08,16,06,30,14.20
2010,08,16,06,31,14.20
2010,08,16,06,32,14.20
2010,08,16,06,33,14.20
2010,08,16,06,34,14.20
2010,08,16,06,35,14.20
2010,08,16,06,36,14.20
2010,08,16,06,37,14.20
2010,08,16,06,38,14.20
2010,08,16,06,39,14.20
2010,08,16,06,40,14.20
2010,08,16,06,41,14.20
2010,08,16,06,42,14.20
2010,08,16,06,43,14.20
2010,08,16,06,44,14.20
2010,08,16,06,45,14.20
2010,08,16,06,46,14.20
2010,08,16,06,47,14.20
2010,08,16,06,48,14.30
2010,08,16,06,49,14.30
2010,08,16,06,50,14.30
2010,08,16,06,51,14.30
2010,08,16,06,52,14.30
2010,08,16,06,53,14.30
2010,08,16,06,54,14.30
2010,08,16,06,55,14.30
2010,08,16,06,56,14.30
2010,08,16,06,57,14.30
2010,08,16,06,58,14.30
2010,08,16,06,59,14.30
2010,08,16,07,00,14.30
2010,08,16,07,01,14.30
2010,08,16,07,02,14.30
2010,08,16,07,03,14.30
2010,08,16,07,04,14.30
2010,08,16,07,05,14.30
2010,08,16,07,06,14.30
2010,08,16,07,07,14.40
2010,08,16,07,08,14.40
2010,08,16,07,09,14.40
2010,08,16,07,10,14.40
2010,08,16,07,11,14.40
2010,08,16,07,12,14.50
2010,08,16,07,13,14.50
2010,08,16,07,14,14.50
2010,08,16,07,15,14.60
2010,08,16,07,16,14.60
2010,08,16,07,17,14.60
2010,08,16,07,18,14.60
2010,08,16,07,19,14.70
2010,08,16,07,20,14.70
2010,08,16,07,21,14.70
2010,08,16,07,22,14.80
2010,08,16,07,23,14.80
2010,08,16,07,24,14.80
2010,08,16,07,25,14.80
2010,08,16,07,26,14.90
2010,08,16,07,27,14.90
2010,08,16,07,28,14.90
2010,08,16,07,29,15.00
2010,08,16,07,30,15.00
2010,08,16,07,31,15.00
2010,08,16,07,32,15.10
2010,08,16,07,33,15.10
2010,08,16,07,34,15.10
2010,08,16,07,35,15.10
2010,08,16,07,36,15.20
2010,08,16,07,37,15.20
2010,08,16,07,38,15.20
2010,08,16,07,39,15.30
2010,08,16,07,40,15.30
2010,08,16,07,41,15.30
2010,08,16,07,42,15.40
2010,08,16,07,43,15.40
2010,08,16,07,44,15.50
2010,08,16,07,45,15.60
2010,08,16,07,46,15.60
2010,08,16,07,47,15.70
2010,08,16,07,48,15.80
2010,08,16,07,49,15.90
2010,08,16,07,50,16.00
2010,08,16,07,51,16.10
2010,08,16,07,52,16.10
2010,08,16,07,53,16.20
2010,08,16,07,54,16.30
2010,08,16,07,55,16.40
2010,08,16,07,56,16.50
2010,08,16,07,57,16.60
2010,08,16,07,58,16.70
2010,08,16,07,59,16.80
2010,08,16,08,00,16.90
2010,08,16,08,01,17.00
2010,08,16,08,02,17.10
2010,08,16,08,03,17.30
2010,08,16,08,04,17.40
2010,08,16,08,05,17.50
2010,08,16,08,06,17.60
2010,08,16,08,07,17.70
2010,08,16,08,08,17.70
2010,08,16,08,09,17.80
2010,08,16,08,10,17.90
2010,08,16,08,11,18.10
2010,08,16,08,12,18.20
2010,08,16,08,13,18.30
2010,08,16,08,14,18.50
2010,08,16,08,15,18.60
2010,08,16,08,16,18.70
2010,08,16,08,17,18.80
2010,08,16,08,18,18.90
2010,08,16,08,19,19.10
2010,08,16,08,20,19.20
2010,08,16,08,21,19.30
2010,08,16,08,22,19.40
2010,08,16,08,23,19.50
2010,08,16,08,24,19.60
2010,08,16,08,25,19.70
2010,08,16,08,26,19.80
2010,08,16,08,27,19.90
2010,08,16,08,28,20.00
2010,08,16,08,29,20.20
2010,08,16,08,30,20.30
2010,08,16,08,31,20.50
2010,08,16,08,32,20.60
2010,08,16,08,33,20.70
2010,08,16,08,34,20.90
2010,08,16,08,35,21.00
2010,08,16,08,36,21.20
2010,08,16,08,37,21.40
2010,08,16,08,38,21.50
2010,08,16,08,39,21.70
2010,08,16,08,40,21.80
2010,08,16,08,41,22.00
2010,08,16,08,42,22.10
2010,08,16,08,43,22.20
2010,08,16,08,44,22.30
2010,08,16,08,45,22.40
2010,08,16,08,46,22.50
2010,08,16,08,47,22.60
2010,08,16,08,48,22.60
2010,08,16,08,49,22.60
2010,08,16,08,50,22.60
2010,08,16,08,51,22.70
2010,08,16,08,52,22.80
2010,08,16,08,53,22.80
2010,08,16,08,54,22.90
2010,08,16,08,55,22.90
2010,08,16,08,56,22.90
2010,08,16,08,57,22.90
2010,08,16,08,58,23.10
2010,08,16,08,59,23.10
2010,08,16,09,00,23.20
2010,08,16,09,01,23.20
2010,08,16,09,02,23.20
2010,08,16,09,03,23.20
2010,08,16,09,04,23.20
2010,08,16,09,05,23.30
2010,08,16,09,06,23.30
2010,08,16,09,07,23.40
2010,08,16,09,08,23.50
2010,08,16,09,09,23.70
2010,08,16,09,10,23.70
2010,08,16,09,11,23.70
2010,08,16,09,12,23.70
2010,08,16,09,13,23.70
2010,08,16,09,14,23.70
2010,08,16,09,15,23.70
2010,08,16,09,16,23.60
2010,08,16,09,17,23.60
2010,08,16,09,18,23.50
2010,08,16,09,19,23.40
2010,08,16,09,20,23.40
2010,08,16,09,21,23.40
2010,08,16,09,22,23.50
2010,08,16,09,23,23.60
2010,08,16,09,24,23.60
2010,08,16,09,25,23.60
2010,08,16,09,26,23.70
2010,08,16,09,27,23.70
2010,08,16,09,28,23.70
2010,08,16,09,29,23.70
2010,08,16,09,30,23.80
2010,08,16,09,31,23.80
2010,08,16,09,32,23.90
2010,08,16,09,33,23.90
2010,08,16,09,34,24.00
2010,08,16,09,35,24.10
2010,08,16,09,36,24.10
2010,08,16,09,37,24.10
2010,08,16,09,38,24.20
2010,08,16,09,39,24.20
2010,08,16,09,40,24.20
2010,08,16,09,41,24.10
2010,08,16,09,42,24.20
2010,08,16,09,43,24.20
2010,08,16,09,44,24.20
2010,08,16,09,45,24.30
2010,08,16,09,46,24.30
2010,08,16,09,47,24.30
2010,08,16,09,48,24.30
2010,08,16,09,49,24.30
2010,08,16,09,50,24.30
2010,08,16,09,51,24.40
2010,08,16,09,52,24.50
2010,08,16,09,53,24.50
2010,08,16,09,54,24.60
2010,08,16,09,55,24.60
2010,08,16,09,56,24.60
2010,08,16,09,57,24.50
2010,08,16,09,58,24.50
2010,08,16,09,59,24.50
2010,08,16,10,00,24.40
2010,08,16,10,01,24.40
2010,08,16,10,02,24.30
2010,08,16,10,03,24.20
2010,08,16,10,04,24.10
2010,08,16,10,05,24.00
2010,08,16,10,06,23.90
2010,08,16,10,07,23.90
2010,08,16,10,08,23.90
2010,08,16,10,09,23.90
2010,08,16,10,10,23.90
2010,08,16,10,11,23.90
2010,08,16,10,12,23.90
2010,08,16,10,13,23.90
2010,08,16,10,14,23.90
2010,08,16,10,15,23.90
2010,08,16,10,16,23.90
2010,08,16,10,17,23.80
2010,08,16,10,18,23.90
2010,08,16,10,19,23.80
2010,08,16,10,20,23.80
2010,08,16,10,21,23.80
2010,08,16,10,22,23.80
2010,08,16,10,23,23.70
2010,08,16,10,24,23.70
2010,08,16,10,25,23.60
2010,08,16,10,26,23.40
2010,08,16,10,27,23.30
2010,08,16,10,28,23.30
2010,08,16,10,29,23.30
2010,08,16,10,30,23.30
2010,08,16,10,31,23.30
2010,08,16,10,32,23.30
2010,08,16,10,33,23.30
2010,08,16,10,34,23.30
2010,08,16,10,35,23.20
2010,08,16,10,36,23.30
2010,08,16,10,37,23.20
2010,08,16,10,38,23.20
2010,08,16,10,39,23.10
2010,08,16,10,40,23.00
2010,08,16,10,41,22.90
2010,08,16,10,42,22.90
2010,08,16,10,43,22.80
2010,08,16,10,44,22.70
2010,08,16,10,45,22.70
2010,08,16,10,46,22.60
2010,08,16,10,47,22.60
2010,08,16,10,48,22.60
2010,08,16,10,49,22.60
2010,08,16,10,50,22.50
2010,08,16,10,51,22.50
2010,08,16,10,52,22.50
2010,08,16,10,53,22.50
2010,08,16,10,54,22.50
2010,08,16,10,55,22.60
2010,08,16,10,56,22.60
2010,08,16,10,57,22.70
2010,08,16,10,58,22.60
2010,08,16,10,59,22.70
2010,08,16,11,00,22.70
2010,08,16,11,01,22.80
2010,08,16,11,02,22.70
2010,08,16,11,03,22.70
2010,08,16,11,04,22.60
2010,08,16,11,05,22.60
2010,08,16,11,06,22.70
2010,08,16,11,07,22.70
2010,08,16,11,08,22.70
2010,08,16,11,09,22.70
2010,08,16,11,10,22.70
2010,08,16,11,11,22.60
2010,08,16,11,12,22.60
2010,08,16,11,13,22.60
2010,08,16,11,14,22.60
2010,08,16,11,15,22.60
2010,08,16,11,16,22.60
2010,08,16,11,17,22.70
2010,08,16,11,18,22.80
2010,08,16,11,19,22.80
2010,08,16,11,20,22.90
2010,08,16,11,21,22.90
2010,08,16,11,22,22.90
2010,08,16,11,23,22.90
2010,08,16,11,24,23.00
2010,08,16,11,25,23.10
2010,08,16,11,26,23.20
2010,08,16,11,27,23.30
2010,08,16,11,28,23.30
2010,08,16,11,29,23.30
2010,08,16,11,30,23.40
2010,08,16,11,31,23.60
2010,08,16,11,32,23.70
2010,08,16,11,33,23.80
2010,08,16,11,34,23.80
2010,08,16,11,35,23.90
2010,08,16,11,36,23.90
2010,08,16,11,37,23.90
2010,08,16,11,38,23.80
2010,08,16,11,39,23.80
2010,08,16,11,40,23.80
2010,08,16,11,41,23.80
2010,08,16,11,42,23.80
2010,08,16,11,43,23.80
2010,08,16,11,44,23.90
2010,08,16,11,45,23.90
2010,08,16,11,46,23.90
2010,08,16,11,47,23.90
2010,08,16,11,48,23.90
2010,08,16,11,49,23.90
2010,08,16,11,50,24.00
2010,08,16,11,51,24.10
2010,08,16,11,52,24.10
2010,08,16,11,53,24.10
2010,08,16,11,54,24.10
2010,08,16,11,55,24.10
2010,08,16,11,56,24.10
2010,08,16,11,57,24.10
2010,08,16,11,58,24.20
2010,08,16,11,59,24.30
2010,08,16,12,00,24.40
2010,08,16,12,01,24.50
2010,08,16,12,02,24.60
2010,08,16,12,03,24.60
2010,08,16,12,04,24.60
2010,08,16,12,05,24.60
2010,08,16,12,06,24.60
2010,08,16,12,07,24.60
2010,08,16,12,08,24.60
2010,08,16,12,09,24.60
2010,08,16,12,10,24.70
2010,08,16,12,11,24.70
2010,08,16,12,12,24.60
2010,08,16,12,13,24.60
2010,08,16,12,14,24.50
2010,08,16,12,15,24.50
2010,08,16,12,16,24.50
2010,08,16,12,17,24.40
2010,08,16,12,18,24.40
2010,08,16,12,19,24.40
2010,08,16,12,20,24.40
2010,08,16,12,21,24.40
2010,08,16,12,22,24.40
2010,08,16,12,23,24.40
2010,08,16,12,24,24.50
2010,08,16,12,25,24.60
2010,08,16,12,26,24.60
2010,08,16,12,27,24.50
2010,08,16,12,28,24.40
2010,08,16,12,29,24.40
2010,08,16,12,30,24.40
2010,08,16,12,31,24.40
2010,08,16,12,32,24.50
2010,08,16,12,33,24.60
2010,08,16,12,34,24.60
2010,08,16,12,35,24.60
2010,08,16,12,36,24.70
2010,08,16,12,37,24.80
2010,08,16,12,38,24.80
2010,08,16,12,39,24.80
2010,08,16,12,40,24.80
2010,08,16,12,41,24.80
2010,08,16,12,42,24.80
2010,08,16,12,43,24.90
2010,08,16,12,44,24.90
2010,08,16,12,45,25.10
2010,08,16,12,46,25.20
2010,08,16,12,47,25.30
2010,08,16,12,48,25.40
2010,08,16,12,49,25.50
2010,08,16,12,50,25.50
2010,08,16,12,51,25.60
2010,08,16,12,52,25.80
2010,08,16,12,53,25.90
2010,08,16,12,54,26.00
2010,08,16,12,55,26.20
2010,08,16,12,56,26.30
2010,08,16,12,57,26.20
2010,08,16,12,58,26.20
2010,08,16,12,59,26.30
2010,08,16,13,00,26.30
2010,08,16,13,01,26.30
2010,08,16,13,02,26.20
2010,08,16,13,03,26.20
2010,08,16,13,04,26.00
2010,08,16,13,05,25.90
2010,08,16,13,06,26.00
2010,08,16,13,07,26.10
2010,08,16,13,08,26.10
2010,08,16,13,09,26.10
2010,08,16,13,10,26.00
2010,08,16,13,11,25.90
2010,08,16,13,12,25.90
2010,08,16,13,13,25.80
2010,08,16,13,14,25.80
2010,08,16,13,15,25.90
2010,08,16,13,16,25.90
2010,08,16,13,17,25.90
2010,08,16,13,18,25.90
2010,08,16,13,19,25.90
2010,08,16,13,20,25.90
2010,08,16,13,21,25.90
2010,08,16,13,22,25.90
2010,08,16,13,23,26.00
2010,08,16,13,24,26.00
2010,08,16,13,25,26.00
2010,08,16,13,26,26.00
2010,08,16,13,27,26.00
2010,08,16,13,28,26.00
2010,08,16,13,29,26.10
2010,08,16,13,30,26.20
2010,08,16,13,31,26.20
2010,08,16,13,32,26.30
2010,08,16,13,33,26.30
2010,08,16,13,34,26.20
2010,08,16,13,35,26.30
2010,08,16,13,36,26.50
2010,08,16,13,37,26.60
2010,08,16,13,38,26.60
2010,08,16,13,39,26.60
2010,08,16,13,40,26.70
2010,08,16,13,41,26.70
2010,08,16,13,42,26.60
2010,08,16,13,43,26.60
2010,08,16,13,44,26.60
2010,08,16,13,45,26.60
2010,08,16,13,46,26.60
2010,08,16,13,47,26.70
2010,08,16,13,48,26.90
2010,08,16,13,49,27.00
2010,08,16,13,50,27.10
2010,08,16,13,51,27.10
2010,08,16,13,52,27.10
2010,08,16,13,53,27.20
2010,08,16,13,54,27.30
2010,08,16,13,55,27.30
2010,08,16,13,56,27.40
2010,08,16,13,57,27.40
2010,08,16,13,58,27.40
2010,08,16,13,59,27.30
2010,08,16,14,00,27.30
2010,08,16,14,01,27.20
2010,08,16,14,02,27.10
2010,08,16,14,03,26.90
2010,08,16,14,04,26.80
2010,08,16,14,05,26.70
2010,08,16,14,06,26.60
2010,08,16,14,07,26.60
2010,08,16,14,08,26.60
2010,08,16,14,09,26.70
2010,08,16,14,10,26.70
2010,08,16,14,11,26.90
2010,08,16,14,12,27.00
2010,08,16,14,13,27.10
2010,08,16,14,14,27.20
2010,08,16,14,15,27.10
2010,08,16,14,16,27.00
2010,08,16,14,17,26.90
2010,08,16,14,18,26.90
2010,08,16,14,19,26.90
2010,08,16,14,20,26.90
2010,08,16,14,21,26.90
2010,08,16,14,22,27.00
2010,08,16,14,23,27.10
2010,08,16,14,24,27.10
2010,08,16,14,25,26.90
2010,08,16,14,26,26.90
2010,08,16,14,27,27.00
2010,08,16,14,28,27.10
2010,08,16,14,29,27.10
2010,08,16,14,30,27.10
2010,08,16,14,31,26.90
2010,08,16,14,32,27.00
2010,08,16,14,33,27.10
2010,08,16,14,34,27.10
2010,08,16,14,35,26.90
2010,08,16,14,36,26.90
2010,08,16,14,37,26.80
2010,08,16,14,38,26.80
2010,08,16,14,39,26.70
2010,08,16,14,40,26.70
2010,08,16,14,41,26.70
2010,08,16,14,42,26.80
2010,08,16,14,43,26.90
2010,08,16,14,44,26.90
2010,08,16,14,45,26.90
2010,08,16,14,46,26.90
2010,08,16,14,47,26.80
2010,08,16,14,48,26.80
2010,08,16,14,49,26.80
2010,08,16,14,50,26.80
2010,08,16,14,51,26.80
2010,08,16,14,52,26.90
2010,08,16,14,53,26.90
2010,08,16,14,54,27.00
2010,08,16,14,55,27.10
2010,08,16,14,56,27.10
2010,08,16,14,57,27.00
2010,08,16,14,58,26.90
2010,08,16,14,59,27.10
2010,08,16,15,00,27.10
2010,08,16,15,01,27.10
2010,08,16,15,02,27.00
2010,08,16,15,03,26.90
2010,08,16,15,04,26.80
2010,08,16,15,05,26.70
2010,08,16,15,06,26.70
2010,08,16,15,07,26.70
2010,08,16,15,08,26.70
2010,08,16,15,09,26.80
2010,08,16,15,10,26.80
2010,08,16,15,11,26.80
2010,08,16,15,12,26.80
2010,08,16,15,13,26.80
2010,08,16,15,14,26.90
2010,08,16,15,15,27.10
2010,08,16,15,16,27.20
2010,08,16,15,17,27.30
2010,08,16,15,18,27.40
2010,08,16,15,19,27.40
2010,08,16,15,20,27.50
2010,08,16,15,21,27.60
2010,08,16,15,22,27.60
2010,08,16,15,23,27.70
2010,08,16,15,24,27.70
2010,08,16,15,25,27.60
2010,08,16,15,26,27.60
2010,08,16,15,27,27.50
2010,08,16,15,28,27.40
2010,08,16,15,29,27.30
2010,08,16,15,30,27.40
2010,08,16,15,31,27.60
2010,08,16,15,32,27.70
2010,08,16,15,33,27.70
2010,08,16,15,34,27.60
2010,08,16,15,35,27.60
2010,08,16,15,36,27.60
2010,08,16,15,37,27.70
2010,08,16,15,38,27.70
2010,08,16,15,39,27.80
2010,08,16,15,40,27.90
2010,08,16,15,41,27.90
2010,08,16,15,42,27.90
2010,08,16,15,43,27.90
2010,08,16,15,44,27.90
2010,08,16,15,45,27.90
2010,08,16,15,46,27.80
2010,08,16,15,47,27.80
2010,08,16,15,48,27.80
2010,08,16,15,49,27.80
2010,08,16,15,50,27.80
2010,08,16,15,51,27.90
2010,08,16,15,52,28.10
2010,08,16,15,53,28.10
2010,08,16,15,54,28.20
2010,08,16,15,55,28.20
2010,08,16,15,56,28.20
2010,08,16,15,57,28.20
2010,08,16,15,58,28.20
2010,08,16,15,59,28.20
2010,08,16,16,00,28.20
2010,08,16,16,01,28.30
2010,08,16,16,02,28.40
2010,08,16,16,03,28.50
2010,08,16,16,04,28.60
2010,08,16,16,05,28.60
2010,08,16,16,06,28.60
2010,08,16,16,07,28.60
2010,08,16,16,08,28.70
2010,08,16,16,09,28.70
2010,08,16,16,10,28.70
2010,08,16,16,11,28.80
2010,08,16,16,12,28.80
2010,08,16,16,13,28.90
2010,08,16,16,14,28.90
2010,08,16,16,15,29.00
2010,08,16,16,16,29.10
2010,08,16,16,17,29.20
2010,08,16,16,18,29.30
2010,08,16,16,19,29.40
2010,08,16,16,20,29.40
2010,08,16,16,21,29.30
2010,08,16,16,22,29.20
2010,08,16,16,23,29.20
2010,08,16,16,24,29.20
2010,08,16,16,25,29.10
2010,08,16,16,26,29.00
2010,08,16,16,27,28.90
2010,08,16,16,28,28.80
2010,08,16,16,29,28.70
2010,08,16,16,30,28.70
2010,08,16,16,31,28.60
2010,08,16,16,32,28.60
2010,08,16,16,33,28.60
2010,08,16,16,34,28.50
2010,08,16,16,35,28.40
2010,08,16,16,36,28.40
2010,08,16,16,37,28.40
2010,08,16,16,38,28.60
2010,08,16,16,39,28.40
2010,08,16,16,40,28.30
2010,08,16,16,41,28.30
2010,08,16,16,42,28.30
2010,08,16,16,43,28.30
2010,08,16,16,44,28.30
2010,08,16,16,45,28.20
2010,08,16,16,46,28.00
2010,08,16,16,47,27.80
2010,08,16,16,48,27.80
2010,08,16,16,49,27.70
2010,08,16,16,50,27.70
2010,08,16,16,51,27.70
2010,08,16,16,52,27.70
2010,08,16,16,53,27.70
2010,08,16,16,54,27.60
2010,08,16,16,55,27.50
2010,08,16,16,56,27.40
2010,08,16,16,57,27.30
2010,08,16,16,58,27.30
2010,08,16,16,59,27.30
2010,08,16,17,00,27.20
2010,08,16,17,01,27.10
2010,08,16,17,02,27.10
2010,08,16,17,03,27.10
2010,08,16,17,04,27.10
2010,08,16,17,05,27.10
2010,08,16,17,06,27.10
2010,08,16,17,07,27.10
2010,08,16,17,08,27.10
2010,08,16,17,09,27.10
2010,08,16,17,10,27.20
2010,08,16,17,11,27.10
2010,08,16,17,12,27.00
2010,08,16,17,13,26.90
2010,08,16,17,14,26.70
2010,08,16,17,15,26.60
2010,08,16,17,16,26.50
2010,08,16,17,17,26.30
2010,08,16,17,18,26.30
2010,08,16,17,19,26.20